Location: Kellogg
(38.0159°N, 90.0546°W)
Time: 06:25:38
(UTC+00:00)

Courier 1B Rocket - Pass Details

Date: 16 September 2024
Orbit: 920 x 1201 km, 28.3° (Epoch: 12 October)

Event Time Altitude Azimuth Distance (km) Brightness Sun altitude
Rises 01:05:29 0° 262° (W) 3,825 9.5 -12.2°
Reaches altitude 10° 01:08:26 10° 252° (WSW) 2,915 8.4 -12.8°
Maximum altitude 01:14:39 32° 192° (SSW) 1,828 6.4 -13.9°
Enters shadow 01:20:08 14° 138° (SE) 2,766 6.9 -15.0°
